TimeAWST,TemperatureF,Dew PointF,Humidity,Sea Level PressureIn,VisibilityMPH,Wind Direction,Wind SpeedMPH,Gust SpeedMPH,PrecipitationIn,Events,Conditions,WindDirDegrees,DateUTC
12:00 AM,59,58,93,29.65,16,North,9.2,,,,Partly Cloudy,0,2013-09-10 16:00:00
12:00 AM,59.0,57.2,94,29.65,6.2,North,9.2,-,N/A,,Scattered Clouds,360,2013-09-10 16:00:00
12:30 AM,59.0,59.0,100,29.62,6.2,North,12.7,-,N/A,,Scattered Clouds,10,2013-09-10 16:30:00
1:00 AM,59.0,57.2,94,29.62,6.2,North,12.7,-,N/A,,Mostly Cloudy,10,2013-09-10 17:00:00
1:30 AM,59.0,57.2,94,29.59,6.2,North,18.4,-,N/A,,Mostly Cloudy,360,2013-09-10 17:30:00
2:00 AM,59,56,87,29.60,,North,12.7,,,,,350,2013-09-10 18:00:00
2:00 AM,59.0,55.4,88,29.59,3.7,North,12.7,-,N/A,Rain,Rain Showers,350,2013-09-10 18:00:00
2:19 AM,59.0,55.4,88,29.59,5.6,North,12.7,-,N/A,,Scattered Clouds,360,2013-09-10 18:19:00
2:36 AM,59.0,55.4,88,29.56,3.7,North,10.4,-,N/A,Rain,Rain Showers,350,2013-09-10 18:36:00
2:38 AM,59.0,55.4,88,29.56,3.7,NNW,10.4,-,N/A,Rain-Thunderstorm,Thunderstorms and Rain,340,2013-09-10 18:38:00
3:00 AM,56,53,86,29.61,4,West,15.0,,,Rain-Thunderstorm,Thunderstorms and Rain,280,2013-09-10 19:00:00
3:00 AM,55.4,53.6,94,29.59,3.7,West,15.0,-,N/A,Rain-Thunderstorm,Thunderstorms and Rain,280,2013-09-10 19:00:00
3:30 AM,55.4,53.6,94,29.59,3.1,WNW,11.5,-,N/A,Rain-Thunderstorm,Thunderstorms and Rain,290,2013-09-10 19:30:00
4:00 AM,55.4,53.6,94,29.59,3.7,WNW,9.2,-,N/A,Rain-Thunderstorm,Thunderstorms and Rain,290,2013-09-10 20:00:00
4:30 AM,55.4,53.6,94,29.59,4.3,North,9.2,-,N/A,Rain,Light Rain Showers,10,2013-09-10 20:30:00
5:00 AM,55,54,96,29.59,,NNE,11.5,,,,,20,2013-09-10 21:00:00
5:00 AM,55.4,53.6,94,29.59,6.2,NNE,11.5,-,N/A,,Mostly Cloudy,20,2013-09-10 21:00:00
5:25 AM,55.4,53.6,94,29.59,3.1,North,13.8,-,N/A,Rain,Heavy Rain Showers,10,2013-09-10 21:25:00
5:30 AM,55.4,53.6,94,29.59,4.3,NW,5.8,-,N/A,Rain,Rain Showers,310,2013-09-10 21:30:00
6:00 AM,55,54,94,29.62,9,North,6.9,,,,Mostly Cloudy,350,2013-09-10 22:00:00
6:00 AM,55.4,53.6,94,29.59,5.6,North,6.9,-,N/A,,Scattered Clouds,350,2013-09-10 22:00:00
6:30 AM,55.4,53.6,94,29.62,6.2,North,5.8,-,N/A,,Scattered Clouds,350,2013-09-10 22:30:00
6:41 AM,55.4,53.6,94,29.62,5.0,WNW,17.3,29.9,N/A,Rain,Light Rain Showers,290,2013-09-10 22:41:00
7:00 AM,57.2,51.8,82,29.62,1.9,WNW,16.1,29.9,N/A,Rain,Heavy Rain Showers,290,2013-09-10 23:00:00
7:11 AM,57.2,51.8,82,29.62,6.2,WNW,15.0,-,N/A,,Scattered Clouds,290,2013-09-10 23:11:00
7:30 AM,59.0,51.8,77,29.62,6.2,WNW,10.4,-,N/A,,Scattered Clouds,300,2013-09-10 23:30:00
7:54 AM,60.8,50.0,68,29.65,3.7,West,23.0,-,N/A,Rain,Rain Showers,280,2013-09-10 23:54:00
8:00 AM,58,50,67,29.66,,WNW,19.6,,,,,290,2013-09-11 00:00:00
8:00 AM,57.2,50.0,77,29.65,6.2,WNW,19.6,-,N/A,,Scattered Clouds,290,2013-09-11 00:00:00
8:03 AM,57.2,50.0,77,29.65,6.2,WNW,18.4,29.9,N/A,,Scattered Clouds,290,2013-09-11 00:03:00
8:30 AM,60.8,48.2,63,29.65,6.2,WNW,15.0,-,N/A,,Scattered Clouds,290,2013-09-11 00:30:00
8:53 AM,60.8,50.0,68,29.65,3.1,WNW,19.6,31.1,N/A,Rain,Heavy Rain Showers,290,2013-09-11 00:53:00
9:00 AM,57,50,71,29.68,12,WNW,21.9,,,Rain,Heavy Rain Showers,300,2013-09-11 01:00:00
9:00 AM,57.2,50.0,77,29.68,6.2,WNW,21.9,-,N/A,Rain,Light Rain Showers,300,2013-09-11 01:00:00
9:11 AM,57.2,50.0,77,29.68,4.3,NW,17.3,-,N/A,Rain,Rain Showers,310,2013-09-11 01:11:00
9:30 AM,57.2,51.8,82,29.68,4.3,WNW,15.0,-,N/A,Rain,Rain Showers,300,2013-09-11 01:30:00
9:46 AM,59.0,51.8,77,29.68,5.0,NW,17.3,29.9,N/A,,Scattered Clouds,310,2013-09-11 01:46:00
10:00 AM,59.0,48.2,67,29.68,6.2,WNW,18.4,-,N/A,,Scattered Clouds,300,2013-09-11 02:00:00
10:23 AM,64.4,51.8,64,29.68,3.1,WNW,17.3,-,N/A,Rain,Rain Showers,300,2013-09-11 02:23:00
10:30 AM,57.2,51.8,82,29.68,6.2,West,17.3,-,N/A,,Scattered Clouds,260,2013-09-11 02:30:00
11:00 AM,63,52,57,29.70,,WNW,19.6,,,,,300,2013-09-11 03:00:00
11:00 AM,62.6,51.8,68,29.68,5.0,WNW,19.6,-,N/A,,Mostly Cloudy,300,2013-09-11 03:00:00
11:08 AM,62.6,51.8,68,29.68,2.5,WNW,21.9,34.5,N/A,Rain,Heavy Rain Showers,300,2013-09-11 03:08:00
11:22 AM,59.0,51.8,77,29.68,6.2,West,16.1,-,N/A,,Mostly Cloudy,280,2013-09-11 03:22:00
11:30 AM,60.8,51.8,72,29.68,6.2,WNW,16.1,-,N/A,,Mostly Cloudy,300,2013-09-11 03:30:00
12:00 PM,63,51,57,29.69,16,WNW,20.7,,,Rain,Heavy Rain Showers,300,2013-09-11 04:00:00
12:00 PM,62.6,51.8,68,29.68,4.3,WNW,20.7,-,N/A,,Mostly Cloudy,300,2013-09-11 04:00:00
12:03 PM,62.6,48.2,59,29.68,2.5,WNW,20.7,40.3,N/A,Rain,Rain Showers,300,2013-09-11 04:03:00
12:14 PM,59.0,51.8,77,29.68,6.2,WNW,21.9,36.8,N/A,,Mostly Cloudy,300,2013-09-11 04:14:00
12:23 PM,60.8,51.8,72,29.68,3.1,WNW,18.4,29.9,N/A,Rain,Rain Showers,290,2013-09-11 04:23:00
12:30 PM,59.0,51.8,77,29.68,3.7,West,19.6,31.1,N/A,Rain,Light Rain Showers,280,2013-09-11 04:30:00
12:48 PM,60.8,53.6,77,29.68,5.0,WNW,17.3,-,N/A,,Scattered Clouds,290,2013-09-11 04:48:00
1:00 PM,62.6,55.4,77,29.68,3.1,West,17.3,-,N/A,Rain,Light Rain Showers,280,2013-09-11 05:00:00
1:11 PM,62.6,53.6,72,29.68,5.6,West,17.3,-,N/A,,Scattered Clouds,280,2013-09-11 05:11:00
1:18 PM,62.6,51.8,68,29.68,6.2,WNW,17.3,28.8,N/A,,Mostly Cloudy,290,2013-09-11 05:18:00
1:30 PM,62.6,50.0,63,29.68,5.0,WNW,19.6,31.1,N/A,,Mostly Cloudy,300,2013-09-11 05:30:00
1:37 PM,62.6,51.8,68,29.68,2.2,WNW,21.9,34.5,N/A,Rain,Heavy Rain Showers,290,2013-09-11 05:37:00
1:40 PM,60.8,53.6,77,29.68,3.7,WNW,21.9,34.5,N/A,,Scattered Clouds,290,2013-09-11 05:40:00
1:54 PM,60.8,53.6,77,29.68,6.2,NW,20.7,-,N/A,,Scattered Clouds,310,2013-09-11 05:54:00
2:00 PM,61,55,73,29.69,,NW,20.7,,,,,310,2013-09-11 06:00:00
2:00 PM,60.8,55.4,82,29.68,6.2,NW,20.7,-,N/A,,Mostly Cloudy,310,2013-09-11 06:00:00
2:08 PM,60.8,55.4,82,29.68,3.1,NW,19.6,31.1,N/A,Rain,Light Rain Showers,310,2013-09-11 06:08:00
2:30 PM,62.6,50.0,63,29.68,3.7,West,20.7,39.1,N/A,Rain,Rain Showers,280,2013-09-11 06:30:00
3:00 PM,62,54,68,29.70,12,WNW,13.8,,,Rain,Light Rain Showers,300,2013-09-11 07:00:00
3:00 PM,62.6,53.6,72,29.68,6.2,NW,16.1,-,N/A,,Scattered Clouds,310,2013-09-11 07:00:00
3:14 PM,62.6,51.8,68,29.68,3.7,West,18.4,-,N/A,Rain,Light Rain Showers,280,2013-09-11 07:14:00
3:30 PM,62.6,53.6,72,29.68,5.0,West,17.3,-,N/A,,Mostly Cloudy,280,2013-09-11 07:30:00
3:37 PM,62.6,51.8,68,29.68,2.5,West,15.0,-,N/A,Rain,Light Rain Showers,280,2013-09-11 07:37:00
3:38 PM,62.6,51.8,68,29.68,1.6,West,17.3,44.9,N/A,Rain,Rain Showers,280,2013-09-11 07:38:00
3:56 PM,59.0,55.4,88,29.71,4.3,West,18.4,31.1,N/A,Rain,Light Rain Showers,280,2013-09-11 07:56:00
4:00 PM,59.0,55.4,88,29.71,4.3,West,15.0,-,N/A,Rain,Light Rain Showers,280,2013-09-11 08:00:00
4:30 PM,60.8,53.6,77,29.71,5.0,West,15.0,27.6,N/A,,Scattered Clouds,270,2013-09-11 08:30:00
5:00 PM,62,51,59,29.74,,West,15.0,,,,,270,2013-09-11 09:00:00
5:00 PM,60.8,51.8,72,29.74,5.6,West,15.0,-,N/A,,Scattered Clouds,270,2013-09-11 09:00:00
5:10 PM,62.6,51.8,68,29.74,6.2,West,17.3,32.2,N/A,,Scattered Clouds,270,2013-09-11 09:10:00
5:27 PM,60.8,51.8,72,29.74,2.5,West,17.3,35.7,N/A,Rain,Heavy Rain Showers,270,2013-09-11 09:27:00
5:29 PM,59.0,51.8,77,29.74,4.3,West,29.9,-,N/A,Rain,Light Rain Showers,280,2013-09-11 09:29:00
5:32 PM,59.0,51.8,77,29.74,4.3,West,25.3,40.3,N/A,Rain,Light Rain Showers,280,2013-09-11 09:32:00
5:51 PM,59.0,51.8,77,29.77,-9999.0,WSW,12.7,-,N/A,,Unknown,250,2013-09-11 09:51:00
6:00 PM,59,53,75,29.78,12,West,12.7,,,Rain,Light Rain Showers,270,2013-09-11 10:00:00
6:00 PM,59.0,53.6,82,29.77,6.2,West,15.0,-,N/A,,Scattered Clouds,280,2013-09-11 10:00:00
6:30 PM,59.0,50.0,72,29.77,5.6,West,15.0,-,N/A,Rain,Light Rain Showers,270,2013-09-11 10:30:00
7:00 PM,59.0,53.6,82,29.80,6.2,West,15.0,-,N/A,,Partly Cloudy,270,2013-09-11 11:00:00
7:30 PM,59.0,51.8,77,29.80,6.2,West,13.8,-,N/A,Rain,Light Rain Showers,270,2013-09-11 11:30:00
8:00 PM,59,50,64,29.83,,West,12.7,,,,,260,2013-09-11 12:00:00
8:00 PM,59.0,50.0,72,29.83,6.2,West,12.7,-,N/A,,Scattered Clouds,260,2013-09-11 12:00:00
8:25 PM,59.0,51.8,77,29.83,3.7,West,11.5,-,N/A,Rain,Rain Showers,280,2013-09-11 12:25:00
8:26 PM,59.0,51.8,77,29.83,3.7,West,23.0,-,N/A,,Mostly Cloudy,280,2013-09-11 12:26:00
8:29 PM,57.2,51.8,82,29.83,3.7,West,21.9,33.4,N/A,Rain,Rain Showers,280,2013-09-11 12:29:00
8:30 PM,57.2,51.8,82,29.83,3.7,West,20.7,33.4,N/A,Rain,Rain Showers,280,2013-09-11 12:30:00
9:00 PM,56,52,81,29.85,7,WNW,13.8,,,Rain,Light Rain Showers,290,2013-09-11 13:00:00
9:00 PM,55.4,51.8,88,29.83,5.0,WNW,13.8,-,N/A,Rain,Light Rain Showers,290,2013-09-11 13:00:00
9:30 PM,57.2,53.6,88,29.83,6.2,NW,8.1,-,N/A,Rain,Light Rain Showers,310,2013-09-11 13:30:00
10:00 PM,59.0,51.8,77,29.86,6.2,West,13.8,-,N/A,,Mostly Cloudy,260,2013-09-11 14:00:00
10:30 PM,57.2,51.8,82,29.86,6.2,West,8.1,-,N/A,,Scattered Clouds,270,2013-09-11 14:30:00
10:55 PM,59.0,53.6,82,29.86,3.1,WSW,21.9,-,N/A,Rain,Rain Showers,240,2013-09-11 14:55:00
11:00 PM,57,53,80,29.87,,West,18.4,,,,,270,2013-09-11 15:00:00
11:00 PM,57.2,51.8,82,29.86,4.3,West,18.4,-,N/A,Rain,Light Rain Showers,270,2013-09-11 15:00:00
11:30 PM,57.2,53.6,88,29.86,5.6,West,9.2,-,N/A,Rain,Light Rain Showers,280,2013-09-11 15:30:00